Regional Weather Roundup
Issued by NWS Cleveland, OH

Home | Current Version | Previous Version | Graphics & Text | Print | Product List | Glossary On
Versions: 1 2 3 4 5 6 7 8 9 10 11 12 13 14 15 16 17 18 19 20 21 22 23 24 25 26 27 28 29 30 31 32 33 34 35 36 37 38 39 40 41 42 43 44 45 46 47 48 49 50
000
ASUS41 KCLE 271310
RWRCLE
OHIO REGIONAL WEATHER ROUNDUP
NATIONAL WEATHER SERVICE CLEVELAND, OH
900 AM EDT WED MAY 27 2015

NOTE: "FAIR" INDICATES FEW OR NO CLOUDS BELOW 12,000 FEET WITH NO
SIGNIFICANT WEATHER AND/OR OBSTRUCTIONS TO VISIBILITY.

OHZ001>008-015>018-024>027-034-035-043-044-271400-
   NORTHWEST OHIO

CITY           SKY/WX    TMP DP  RH WIND       PRES   REMARKS
DEFIANCE       MOSUNNY   71  61  70 SW12G21   30.00F
FINDLAY        SUNNY     71  64  78 SW13      30.04R
TOLEDO EXPRESS SUNNY     69  61  75 SW12G21   30.01R
TOLEDO EXEC    SUNNY     71  62  73 SW17G23   30.02R
LIMA           MOSUNNY   68  62  81 SW14      30.06R
$$

OHZ009>014-019>023-028>033-038-089-271400-
   NORTHEAST OHIO

CITY           SKY/WX    TMP DP  RH WIND       PRES   REMARKS
CLE-HOPKINS    MOSUNNY   71  64  78 SW13      30.08R
CLE-LAKEFRONT  MOSUNNY   72  63  73 S12G21    30.05R
CUY CO. ARPT   PTSUNNY   73  66  78 SW16      30.07R
LORAIN-ELYRIA  MOSUNNY   71  64  78 SW17      30.06R
ASHTABULA      PTSUNNY   70  65  84 SW12      30.08R
AKRON-CANTON   CLOUDY    69  62  78 SW10      30.11R
WOOSTER        PTSUNNY   68  63  84 SW14      30.11R
MANSFIELD      MOSUNNY   70  63  78 SW14      30.10S
YOUNGSTOWN     CLOUDY    69  64  84 SW12      30.10R
$$

OHZ042-051>053-060>062-070>072-077>081-271400-
  SOUTHWEST OHIO

CITY           SKY/WX    TMP DP  RH WIND       PRES   REMARKS
CINC-COVINGTON MOSUNNY   70  64  81 SW12      30.13R
CINC-LUNKEN    MOSUNNY   71  66  84 SW8       30.12S
HAMILTON       MOSUNNY   71  64  78 SW8       30.12S
DAYTON         PTSUNNY   69  63  81 SW12      30.11S
WRIGHT-PAT AFB PTSUNNY   70  64  83 SW12      30.10S
DAYTON GENERAL PTSUNNY   70  64  81 SW10      30.10S
WILMINGTON     PTSUNNY   69  63  81 SW13      30.12R
$$

OHZ036-037-039>041-045>050-054>059-063>069-073>076-082>088-271400-
  CENTRAL AND SOUTHEAST OHIO

CITY           SKY/WX    TMP DP  RH WIND       PRES   REMARKS
COLUMBUS       CLOUDY    69  65  86 S8        30.11R
OSU AIRPORT    MOSUNNY   71  64  78 SW14      30.11R
BOLTON FIELD   PTSUNNY   70  64  83 SW16      30.13R
RICKENBACK AFB CLOUDY    69  65  88 SW10G17   30.11S
NEWARK         CLOUDY    70  65  84 SW8       30.12R
MARION         MOSUNNY   70  63  78 SW15      30.08F
LANCASTER      PTSUNNY   71  65  81 SW10      30.13R
ZANESVILLE     NOT AVBL
NEW PHILLY     NOT AVBL
$$



USA.gov is the U.S. government's official web portal to all federal, state and local government web resources and services.